Theta_e
342 342 342 345 347 348 350 352 353 355 351 351 351 351 350 348 349 350 347 346 345 346
347 342 342 345 347 349 349 350 351 354 351 352 351 351 349 347 346 349 348 348 345 346
343 347 341 344 344 348 347 348 349 354 351 350 352 351 350 347 347 347 346 347 345 344
341 344 344 342 344 345 345 347 349 354 352 352 352 350 349 347 346 347 346 346 345 345
340 342 345 345 342 344 345 348 352 354 353 353 354 350 349 347 348 348 346 346 346 347
341 340 342 346 345 340 345 345 352 353 353 353 353 353 352 350 348 348 349 348 347 347
346 342 339 344 345 344 341 345 346 352 353 353 352 352 352 353 350 348 349 349 348 349
348 348 344 340 344 343 345 345 349 348 352 353 352 353 351 351 350 349 349 350 352 352
347 349 349 344 341 342 341 347 347 351 351 351 354 342 340 347 350 350 349 349 349 351
349 348 349 350 346 343 341 340 347 346 350 351 353 337 336 341 350 350 351 351 351 351
351 350 350 350 350 348 346 341 342 350 347 348 351 335 333 338 350 349 347 351 353 352
353 352 351 349 349 350 349 347 343 344 351 351 351 331 331 334 348 349 348 347 349 352
346 351 351 351 351 351 351 350 349 347 347 342 351 333 328 331 350 346 347 348 347 335
342 350 352 352 352 352 351 350 350 350 350 351 350 350 326 324 351 351 347 344 345 347
Wind_Speed
9 6 5 6 6 8 8 8 7 9 6 6 6 6 6 4 4 3 3 4 3 2
9 8 7 8 5 6 8 5 7 8 9 7 7 6 6 4 5 5 4 4 4 3
11 8 7 7 7 7 7 6 7 9 9 7 6 6 6 5 4 6 4 4 4 3
13 10 6 7 8 7 5 8 8 11 10 9 8 7 6 6 6 6 5 4 5 6
14 13 9 8 8 7 7 6 7 10 11 11 10 8 8 8 6 7 6 7 5 6
16 15 16 13 9 7 8 7 7 8 12 11 11 10 10 9 7 7 7 7 7 7
18 17 16 16 12 8 9 9 9 8 10 10 11 11 11 10 8 7 7 7 7 7
16 16 15 16 16 12 10 11 10 11 9 10 10 9 11 10 9 8 7 7 7 7
18 16 17 16 17 15 15 13 10 11 12 12 10 12 14 11 8 8 8 9 7 7
17 18 17 15 16 16 16 15 15 13 10 11 12 14 15 16 9 8 10 9 9 7
16 17 17 17 17 17 14 16 15 15 15 14 12 13 16 16 12 9 10 11 11 11
13 17 17 19 18 16 15 14 15 15 14 15 15 15 17 13 11 12 12 10 11 12
12 14 17 19 19 17 16 16 13 15 15 16 16 15 17 15 10 11 10 10 10 15
13 18 20 19 15 17 16 15 15 16 14 15 16 16 18 19 13 12 10 10 10 9
Wind_Direction
203 211 199 195 197 196 197 199 185 188 186 186 188 182 174 166 182 189 191 188 201 221
203 200 200 211 195 206 203 191 183 183 187 190 190 185 177 180 184 192 214 204 199 225
214 212 204 196 209 209 207 187 185 188 191 188 192 193 188 190 197 189 211 222 211 219
207 221 206 204 211 211 209 200 194 195 187 187 191 196 196 202 203 207 219 223 216 244
200 206 216 215 213 207 202 210 195 191 188 188 194 192 204 205 201 205 216 230 219 244
201 202 212 221 221 213 203 201 203 192 190 190 195 196 208 211 207 204 211 216 214 229
198 204 210 214 215 211 222 204 207 199 202 200 198 198 200 202 209 211 210 214 212 218
202 199 203 211 216 211 212 224 207 206 206 201 202 205 205 203 208 211 222 217 222 222
202 200 201 204 208 213 215 217 211 209 205 203 207 204 194 193 203 213 215 230 227 229
202 203 203 203 206 210 213 218 222 218 205 210 210 202 198 199 210 211 221 224 232 233
206 205 202 207 207 208 205 211 215 222 220 219 218 201 204 207 217 218 223 222 222 226
219 211 203 206 211 209 203 208 214 215 211 216 225 202 206 198 214 225 229 223 226 223
303 230 212 209 208 209 208 209 211 217 216 216 221 208 207 198 217 226 231 232 232 225
294 249 215 213 207 208 206 209 211 218 215 213 212 218 203 198 213 223 225 231 232 231